Location: Newark
(42.9858°N, 0.6717°E)
Time: 02:31:33
(UTC+00:00)

S-56A Canister/Altair - Pass Details

Date: 20 November 2019
Orbit: 633 x 2499 km, 38.9° (Epoch: 07 December)

Event Time Altitude Azimuth Distance (km) Brightness Sun altitude
Rises 14:44:08 0° 211° (SSW) 5,843 13.7 14.7°
Reaches altitude 10° 14:49:00 10° 201° (SSW) 4,595 13.0 14.1°
Maximum altitude 14:58:32 28° 150° (SSE) 2,789 10.7 12.9°
Drops below altitude 10° 15:05:39 10° 96° (E) 3,375 10.5 11.9°
Sets 15:08:35 0° 84° (E) 4,089 10.8 11.5°
